Weather History for EGAE - February, 2013

Change the Weather History Date:

Tuesday, February 12, 2013

  Actual Average Record
Temperature  
Mean Temperature 40 °F -  
Max Temperature 41 °F 46 °F 57 °F (1998)
Min Temperature 39 °F 38 °F 28 °F (2003)
Degree Days  
Heating Degree Days 25    
Moisture  
Dew Point 33 °F    
Average Humidity 78    
Maximum Humidity 87    
Minimum Humidity 70    
Precipitation  
Precipitation 0.00 in - - ()
Sea Level Pressure  
Sea Level Pressure 29.95 in    
Wind  
Wind Speed 7 mph ()    
Max Wind Speed 18 mph    
Max Gust Speed -    
Visibility 5.9 miles    
Events Rain    
Averages and records for this station are not official NWS values.
T = Trace of Precipitation, MM = Missing Value Source: Averaged Metar Reports

Daily Weather History Graph

Daily Weather History Graph

Search for Another Location

Airport or City:

Trip Planner

Search our weather history database for the weather conditions in past years. The results will help you decide how hot, cold, wet, or windy it might be!

Date:

Astronomy

Feb. 12, 2013 Rise Set
Actual Time 7:57 AM GMT 5:29 PM GMT
Civil Twilight 7:19 AM GMT 6:07 PM GMT
Nautical Twilight 6:36 AM GMT 6:50 PM GMT
Astronomical Twilight 5:54 AM GMT 7:32 PM GMT
Moon 8:14 AM GMT (2/12) 8:53 PM GMT (2/12)
Length of Visible Light 10h 47m
Length of Day
9h 31m
Waxing Crescent, 6% of the Moon is Illuminated
Feb 12
Waxing Crescent
Feb 17
First Quarter
Feb 25
Full
Mar 4
Last Quarter
Mar 11
New

Hourly Weather History & Observations

Time (GMT) Temp. Windchill Dew Point Humidity Pressure Visibility Wind Dir Wind Speed Gust Speed Precip Events Conditions
7:50 AM 39.2 °F 35.0 °F 32.0 °F 75% 29.95 in 6.2 mi NNW 5.8 mph - N/A   Overcast
8:20 AM 39.2 °F - 32.0 °F 75% 29.95 in 6.2 mi Variable 2.3 mph - N/A   Overcast
8:50 AM 39.2 °F 35.9 °F 32.0 °F 75% 29.95 in 6.2 mi NNW 4.6 mph - N/A   Overcast
9:20 AM 39.2 °F 35.9 °F 32.0 °F 75% 29.95 in 6.2 mi ENE 4.6 mph - N/A   Overcast
9:50 AM 39.2 °F 35.0 °F 32.0 °F 75% 29.95 in 6.2 mi ENE 5.8 mph - N/A   Overcast
10:20 AM 39.2 °F 35.9 °F 32.0 °F 75% 29.98 in 6.2 mi NNE 4.6 mph - N/A   Overcast
10:50 AM 39.2 °F - 32.0 °F 75% 29.95 in 6.2 mi Variable 2.3 mph - N/A   Mostly Cloudy
11:20 AM 39.2 °F - 32.0 °F 75% 29.95 in 6.2 mi Variable 2.3 mph - N/A   Mostly Cloudy
11:50 AM 41.0 °F 39.0 °F 32.0 °F 70% 29.95 in 6.2 mi ENE 3.5 mph - N/A   Mostly Cloudy
12:20 PM 39.2 °F 31.6 °F 32.0 °F 75% 29.95 in 6.2 mi SSE 12.7 mph - N/A   Mostly Cloudy
12:50 PM 39.2 °F 30.2 °F 32.0 °F 75% 29.95 in 6.2 mi SSE 17.3 mph - N/A   Mostly Cloudy
1:20 PM 41.0 °F 32.2 °F 33.8 °F 76% 29.95 in 6.2 mi SSE 18.4 mph - N/A   Mostly Cloudy
1:50 PM 39.2 °F 30.8 °F 33.8 °F 81% 29.95 in 6.2 mi SSE 15.0 mph - N/A   Mostly Cloudy
2:20 PM 41.0 °F 33.1 °F 33.8 °F 76% 29.95 in 6.2 mi SSE 15.0 mph - N/A   Mostly Cloudy
2:50 PM 41.0 °F 33.9 °F 33.8 °F 76% 29.95 in 6.2 mi SE 12.7 mph - N/A   Mostly Cloudy
3:20 PM 41.0 °F 33.9 °F 35.6 °F 81% 29.95 in 6.2 mi SE 12.7 mph - N/A   Mostly Cloudy
3:50 PM 41.0 °F 33.5 °F 35.6 °F 81% 29.95 in 6.2 mi SE 13.8 mph - N/A   Mostly Cloudy
4:20 PM 39.2 °F 32.0 °F 35.6 °F 87% 29.95 in 5.0 mi SE 11.5 mph - N/A   Mostly Cloudy
4:50 PM 39.2 °F 30.8 °F 33.8 °F 81% 29.95 in 5.0 mi SE 15.0 mph - N/A   Mostly Cloudy
5:20 PM 39.2 °F 30.5 °F 33.8 °F 81% 29.95 in 5.0 mi SE 16.1 mph - N/A   Mostly Cloudy
5:50 PM 39.2 °F 30.8 °F 33.8 °F 81% 29.95 in 4.3 mi SE 15.0 mph - N/A Rain Light Rain
6:20 PM 39.2 °F 30.8 °F 35.6 °F 87% 29.95 in 4.3 mi SE 15.0 mph - N/A Rain Light Rain